• Em Portugal
  • Lista de países
  • Para 7 dias
  • Temperatura da água
  • Mapas de satélite
  • Mapa do tempo
  • Widgets de tempo
  • user-avatar
    Iniciar Sessão

    Previsão horária em Mandalay

    Hoje, 23 Junho, Sábado

    Tempo Temperatura Precipitação Vento Pressão Humidade
    00:00 +29°C° 0 mm 4 m/s 747 mmHg 80%
    01:00 +29°C° 0 mm 4 m/s 747 mmHg 81%
    02:00 +29°C° 0 mm 4 m/s 747 mmHg 81%
    03:00 +28°C° 0 mm 4 m/s 747 mmHg 82%
    04:00 +29°C° 0,1 mm 4 m/s 747 mmHg 82%
    05:00 +29°C° 0,1 mm 4 m/s 747 mmHg 81%
    06:00 +29°C° 0 mm 4 m/s 747 mmHg 79%
    07:00 +30°C° 0 mm 4 m/s 747 mmHg 76%
    08:00 +32°C° 0 mm 5 m/s 747 mmHg 72%
    09:00 +33°C° 0 mm 5 m/s 747 mmHg 68%
    10:00 +34°C° 0,3 mm 5 m/s 747 mmHg 67%
    11:00 +34°C° 0,3 mm 5 m/s 747 mmHg 65%
    12:00 +35°C° 0,3 mm 5 m/s 746 mmHg 63%
    13:00 +35°C° 1,7 mm 5 m/s 746 mmHg 64%
    14:00 +35°C° 1,7 mm 5 m/s 745 mmHg 66%
    15:00 +35°C° 1,7 mm 5 m/s 744 mmHg 67%
    16:00 +34°C° 1,6 mm 5 m/s 744 mmHg 70%
    17:00 +33°C° 1,6 mm 5 m/s 744 mmHg 74%
    18:00 +32°C° 1,6 mm 5 m/s 744 mmHg 77%
    19:00 +32°C° 0,2 mm 5 m/s 744 mmHg 78%
    20:00 +30°C° 0,2 mm 5 m/s 745 mmHg 80%
    21:00 +30°C° 0,2 mm 4 m/s 745 mmHg 81%
    22:00 +29°C° 0,1 mm 4 m/s 745 mmHg 82%
    23:00 +29°C° 0,1 mm 4 m/s 745 mmHg 82%

    Amanhã, 24 Junho, Domingo

    Tempo Temperatura Precipitação Vento Pressão Humidade
    00:00 +29°C° 0,1 mm 4 m/s 745 mmHg 82%
    01:00 +29°C° 0,2 mm 4 m/s 745 mmHg 83%
    02:00 +28°C° 0,2 mm 4 m/s 745 mmHg 83%
    03:00 +28°C° 0,2 mm 3 m/s 745 mmHg 84%
    04:00 +28°C° 0,4 mm 3 m/s 745 mmHg 84%
    05:00 +28°C° 0,4 mm 4 m/s 745 mmHg 85%
    06:00 +28°C° 0,4 mm 4 m/s 745 mmHg 85%
    07:00 +29°C° 0,3 mm 4 m/s 746 mmHg 82%
    08:00 +30°C° 0,3 mm 4 m/s 746 mmHg 80%
    09:00 +30°C° 0,3 mm 5 m/s 747 mmHg 77%
    10:00 +32°C° 0,3 mm 5 m/s 746 mmHg 74%
    11:00 +33°C° 0,3 mm 5 m/s 746 mmHg 71%
    12:00 +34°C° 0,3 mm 4 m/s 746 mmHg 68%
    13:00 +34°C° 1,3 mm 5 m/s 745 mmHg 69%
    14:00 +34°C° 1,3 mm 5 m/s 745 mmHg 69%
    15:00 +34°C° 1,3 mm 5 m/s 744 mmHg 70%
    16:00 +33°C° 0,8 mm 5 m/s 744 mmHg 72%
    17:00 +32°C° 0,8 mm 5 m/s 744 mmHg 75%
    18:00 +30°C° 0,8 mm 5 m/s 744 mmHg 77%
    19:00 +30°C° 0,3 mm 5 m/s 745 mmHg 79%
    20:00 +29°C° 0,3 mm 5 m/s 746 mmHg 81%
    21:00 +29°C° 0,3 mm 5 m/s 746 mmHg 82%
    22:00 +28°C° 0,2 mm 4 m/s 746 mmHg 83%
    23:00 +28°C° 0,2 mm 4 m/s 746 mmHg 84%

    Depois de amanhã, 25 Junho, Segunda-feira

    Tempo Temperatura Precipitação Vento Pressão Humidade
    00:00 +28°C° 0,2 mm 4 m/s 746 mmHg 84%
    01:00 +28°C° 0,3 mm 4 m/s 746 mmHg 85%
    02:00 +27°C° 0,3 mm 3 m/s 745 mmHg 85%
    03:00 +27°C° 0,3 mm 3 m/s 745 mmHg 86%
    04:00 +27°C° 0,4 mm 3 m/s 745 mmHg 86%
    05:00 +27°C° 0,4 mm 3 m/s 745 mmHg 86%
    06:00 +27°C° 0,4 mm 3 m/s 746 mmHg 86%
    07:00 +28°C° 0,2 mm 4 m/s 746 mmHg 83%
    08:00 +29°C° 0,2 mm 4 m/s 746 mmHg 80%
    09:00 +30°C° 0,2 mm 4 m/s 746 mmHg 77%
    10:00 +32°C° 0,4 mm 4 m/s 746 mmHg 74%
    11:00 +33°C° 0,4 mm 4 m/s 746 mmHg 71%
    12:00 +34°C° 0,4 mm 4 m/s 746 mmHg 69%
    13:00 +34°C° 1,3 mm 5 m/s 745 mmHg 70%
    14:00 +34°C° 1,3 mm 5 m/s 744 mmHg 70%
    15:00 +34°C° 1,3 mm 5 m/s 744 mmHg 71%
    16:00 +33°C° 0,9 mm 5 m/s 744 mmHg 74%
    17:00 +32°C° 0,9 mm 5 m/s 744 mmHg 77%
    18:00 +30°C° 0,9 mm 5 m/s 744 mmHg 79%
    19:00 +30°C° 0,1 mm 5 m/s 744 mmHg 81%
    20:00 +29°C° 0,1 mm 4 m/s 745 mmHg 82%
    21:00 +28°C° 0,1 mm 4 m/s 746 mmHg 84%
    22:00 +28°C° 0,1 mm 4 m/s 745 mmHg 84%
    23:00 +28°C° 0,1 mm 4 m/s 745 mmHg 84%

    26 Junho, Terça-feira

    Tempo Temperatura Precipitação Vento Pressão Humidade
    00:00 +28°C° 0,1 mm 4 m/s 745 mmHg 85%
    01:00 +28°C° 0 mm 3 m/s 745 mmHg 85%
    02:00 +28°C° 0 mm 3 m/s 745 mmHg 86%
    03:00 +27°C° 0 mm 3 m/s 744 mmHg 86%
    04:00 +28°C° 0 mm 2 m/s 745 mmHg 86%
    05:00 +28°C° 0 mm 2 m/s 745 mmHg 85%
    06:00 +28°C° 0 mm 2 m/s 745 mmHg 85%
    07:00 +29°C° 0,1 mm 3 m/s 746 mmHg 82%
    08:00 +30°C° 0,1 mm 3 m/s 746 mmHg 78%
    09:00 +32°C° 0,1 mm 4 m/s 746 mmHg 75%
    10:00 +33°C° 0,4 mm 4 m/s 746 mmHg 73%
    11:00 +33°C° 0,4 mm 4 m/s 746 mmHg 72%
    12:00 +34°C° 0,4 mm 5 m/s 746 mmHg 70%
    13:00 +34°C° 0,7 mm 5 m/s 745 mmHg 70%
    14:00 +34°C° 0,7 mm 5 m/s 745 mmHg 70%
    15:00 +34°C° 0,7 mm 6 m/s 744 mmHg 70%
    16:00 +33°C° 0,9 mm 5 m/s 745 mmHg 73%
    17:00 +32°C° 0,9 mm 5 m/s 745 mmHg 77%
    18:00 +30°C° 0,9 mm 5 m/s 745 mmHg 80%
    19:00 +29°C° 1,3 mm 5 m/s 746 mmHg 82%
    20:00 +29°C° 1,3 mm 4 m/s 747 mmHg 85%
    21:00 +28°C° 1,3 mm 4 m/s 747 mmHg 87%
    22:00 +28°C° 0,2 mm 4 m/s 747 mmHg 87%
    23:00 +28°C° 0,2 mm 3 m/s 747 mmHg 87%

    27 Junho, Quarta-feira

    Tempo Temperatura Precipitação Vento Pressão Humidade
    00:00 +28°C° 0,2 mm 3 m/s 747 mmHg 87%
    01:00 +27°C° 0,1 mm 3 m/s 747 mmHg 87%
    02:00 +27°C° 0,1 mm 3 m/s 746 mmHg 87%
    03:00 +27°C° 0,1 mm 3 m/s 746 mmHg 87%
    04:00 +27°C° 0,1 mm 3 m/s 746 mmHg 87%
    05:00 +27°C° 0,1 mm 3 m/s 747 mmHg 86%
    06:00 +28°C° 0,1 mm 3 m/s 747 mmHg 86%
    07:00 +28°C° 0,1 mm 3 m/s 748 mmHg 82%
    08:00 +29°C° 0,1 mm 3 m/s 748 mmHg 78%
    09:00 +30°C° 0,1 mm 4 m/s 749 mmHg 75%
    10:00 +32°C° 0,4 mm 4 m/s 748 mmHg 72%
    11:00 +33°C° 0,4 mm 4 m/s 748 mmHg 70%
    12:00 +34°C° 0,4 mm 5 m/s 748 mmHg 67%
    13:00 +34°C° 0,7 mm 5 m/s 747 mmHg 68%
    14:00 +33°C° 0,7 mm 5 m/s 747 mmHg 69%
    15:00 +33°C° 0,7 mm 5 m/s 746 mmHg 70%
    16:00 +32°C° 0,3 mm 5 m/s 747 mmHg 73%
    17:00 +30°C° 0,3 mm 5 m/s 747 mmHg 75%
    18:00 +30°C° 0,3 mm 4 m/s 747 mmHg 78%
    19:00 +29°C° 0,1 mm 4 m/s 748 mmHg 79%
    20:00 +29°C° 0,1 mm 4 m/s 748 mmHg 81%
    21:00 +28°C° 0,1 mm 3 m/s 749 mmHg 82%
    22:00 +28°C° 0,1 mm 3 m/s 749 mmHg 82%
    23:00 +28°C° 0,1 mm 3 m/s 748 mmHg 83%

    28 Junho, Quinta-feira

    Tempo Temperatura Precipitação Vento Pressão Humidade
    00:00 +28°C° 0,1 mm 3 m/s 748 mmHg 83%
    01:00 +27°C° 0,1 mm 3 m/s 748 mmHg 83%
    02:00 +27°C° 0,1 mm 3 m/s 748 mmHg 83%
    03:00 +27°C° 0,1 mm 3 m/s 747 mmHg 83%
    04:00 +27°C° 0,1 mm 3 m/s 748 mmHg 83%
    05:00 +27°C° 0,1 mm 3 m/s 748 mmHg 83%
    06:00 +27°C° 0,1 mm 3 m/s 748 mmHg 83%
    07:00 +28°C° 0,2 mm 3 m/s 749 mmHg 81%
    08:00 +28°C° 0,2 mm 4 m/s 749 mmHg 79%
    09:00 +29°C° 0,2 mm 4 m/s 749 mmHg 77%
    10:00 +30°C° 0,3 mm 4 m/s 749 mmHg 74%
    11:00 +32°C° 0,3 mm 4 m/s 748 mmHg 71%
    12:00 +32°C° 0,3 mm 4 m/s 748 mmHg 69%
    13:00 +33°C° 0,6 mm 4 m/s 747 mmHg 67%
    14:00 +33°C° 0,6 mm 4 m/s 747 mmHg 66%
    15:00 +34°C° 0,6 mm 4 m/s 746 mmHg 65%
    16:00 +33°C° 0,7 mm 4 m/s 746 mmHg 68%
    17:00 +32°C° 0,7 mm 4 m/s 747 mmHg 71%
    18:00 +31°C° 0,7 mm 3 m/s 747 mmHg 74%
    19:00 +30°C° 0,3 mm 3 m/s 747 mmHg 75%
    20:00 +29°C° 0,3 mm 3 m/s 748 mmHg 77%
    21:00 +29°C° 0,3 mm 3 m/s 748 mmHg 79%
    22:00 +29°C° 0,2 mm 3 m/s 748 mmHg 79%
    23:00 +28°C° 0,2 mm 3 m/s 748 mmHg 80%
    Mostrar mais